Location: Twillingate Astronomical Observatory
(49.6173°N, 54.7580°W)
Time: 22:03:29
(UTC-02:-30)

Amateur Radio Satellites - All Passes

Search period start: 24 July 2017 21:33
Search period end: 25 July 2017 21:33
Location: Twillingate Astronomical Observatory, 49.6173°N, 54.7580°W

Satellite Date Start Highest point End Downlink Frequencies (MHz)
Time Altitude Azimuth
Tancredo 1 24 Jul 21:34:27 21:37:11 36° 149° (SSE) 21:39:55 437.200
ZACube-1 24 Jul 21:43:53 21:47:31 24° 267° (W) 21:51:06 437.345
AO-85 24 Jul 21:45:22 21:49:31 77° 231° (SW) 21:53:55 145.980
nSIGHT-1 24 Jul 21:46:53 21:49:32 24° 144° (SE) 21:52:12 .
BEESAT 2 24 Jul 21:54:00 21:58:01 53° 46° (NE) 22:01:59 435.950
AAUSAT CUBESAT 2 24 Jul 21:58:02 21:58:49 10° 274° (W) 21:59:37 437.432
EO-88 24 Jul 22:01:32 22:05:10 76° 75° (ENE) 22:08:49 145.990 - 145.960
LO-87 24 Jul 22:09:06 22:11:18 16° 62° (ENE) 22:13:31 145.935 - 145.965
Oscar 11 24 Jul 22:11:43 22:14:44 19° 269° (W) 22:17:48 .
AO-73 24 Jul 22:27:10 22:28:30 11° 274° (W) 22:29:48 145.935
YUBILEINY 24 Jul 22:28:26 22:33:50 17° 312° (NW) 22:39:15 435.215
STRAND 1 24 Jul 22:35:14 22:38:32 17° 305° (NW) 22:41:48 437.568
UNISAT 6 24 Jul 22:36:21 22:40:14 31° 95° (E) 22:44:03 437.425
FO-29 24 Jul 22:36:56 22:44:13 60° 99° (E) 22:50:38 435.910
ISS 24 Jul 22:39:52 22:43:02 53° 154° (SSE) 22:46:14 437.550
PRISM 24 Jul 22:42:46 22:46:27 29° 96° (E) 22:50:04 437.425
BEESAT 3 24 Jul 22:53:50 22:56:42 19° 246° (WSW) 22:59:34 437.485
RS-15 24 Jul 23:01:19 23:13:10 48° 25° (NNE) 23:24:32 29.354- 29.394
DELFI C3 24 Jul 23:02:37 23:05:17 17° 269° (W) 23:07:58 145.870
Tancredo 1 24 Jul 23:09:33 23:12:29 66° 348° (NNW) 23:15:26 437.200
ESTCUBE 1 24 Jul 23:11:28 23:15:45 48° 69° (ENE) 23:20:05 437.505/2401.250
SPROUT 24 Jul 23:18:49 23:21:44 18° 60° (ENE) 23:24:39 437.525
TIGRISAT 24 Jul 23:20:30 23:24:52 77° 103° (ESE) 23:29:08 435.000
nSIGHT-1 24 Jul 23:22:26 23:25:40 89° 346° (NNW) 23:28:55 .
AO-85 24 Jul 23:28:07 23:29:16 11° 250° (WSW) 23:30:27 145.980
BEESAT 2 24 Jul 23:32:18 23:35:28 22° 245° (WSW) 23:38:36 435.950
LO-87 24 Jul 23:40:48 23:44:21 52° 260° (W) 23:47:57 145.935 - 145.965
M-CUBED/EXP-1 PRIME 24 Jul 23:42:07 23:46:31 45° 104° (ESE) 23:50:59 437.505
VELOX 1 24 Jul 23:59:14 00:03:18 37° 67° (ENE) 00:07:24 145.980
DX 1 25 Jul 00:07:28 00:10:22 17° 58° (ENE) 00:13:16 434.975-435.025
UNISAT 6 25 Jul 00:13:04 00:16:57 32° 294° (WNW) 00:20:46 437.425
AIST 2D 25 Jul 00:14:15 00:17:35 42° 98° (E) 00:20:56 435.315
ISS 25 Jul 00:16:18 00:19:31 62° 353° (N) 00:22:46 437.550
PRISM 25 Jul 00:17:59 00:21:44 32° 294° (WNW) 00:25:27 437.425
FO-29 25 Jul 00:22:20 00:28:51 35° 302° (WNW) 00:34:45 435.910
DUCHIFAT 1 25 Jul 00:39:06 00:42:48 29° 95° (E) 00:46:27 145.980
POLYITAN 1 25 Jul 00:40:51 00:44:47 37° 97° (E) 00:48:41 437.675
Tancredo 1 25 Jul 00:45:09 00:48:05 61° 9° (N) 00:51:01 437.200
O/OREOS (USA 219) 25 Jul 00:45:15 00:49:32 42° 56° (NE) 00:53:49 437.305
50 SAT 25 Jul 00:47:23 00:50:37 43° 71° (ENE) 00:53:53 437.505
ESTCUBE 1 25 Jul 00:49:21 00:52:49 22° 268° (W) 00:56:19 437.505/2401.250
UKube-1 25 Jul 00:49:54 00:53:35 28° 64° (ENE) 00:57:19 .
SPROUT 25 Jul 00:52:58 00:57:13 62° 259° (WSW) 01:01:30 437.525
QB50P2 25 Jul 00:53:45 00:57:54 55° 100° (E) 01:02:02 145.880/145.840
TIGRISAT 25 Jul 00:58:31 01:00:59 15° 303° (WNW) 01:03:26 435.000
nSIGHT-1 25 Jul 00:59:02 01:02:13 57° 2° (N) 01:05:26 .
EO-79 25 Jul 01:05:54 01:10:08 67° 102° (ESE) 01:14:18 145.935-145.965
NANOSAT C BR1 25 Jul 01:06:11 01:10:23 61° 102° (ESE) 01:14:31 145.865
BUGSAT 1 25 Jul 01:09:53 01:12:52 19° 92° (E) 01:15:49 437.445
Oscar 19 25 Jul 01:14:37 01:16:22 12° 85° (E) 01:18:07 437.125/150
RS-15 25 Jul 01:14:43 01:26:59 84° 234° (SW) 01:38:35 29.354- 29.394
M-CUBED/EXP-1 PRIME 25 Jul 01:16:51 01:20:44 28° 302° (WNW) 01:24:42 437.505
VELOX 1 25 Jul 01:35:59 01:39:49 28° 265° (W) 01:43:41 145.980
Gurwin Techsat 1B 25 Jul 01:37:23 01:39:40 13° 85° (E) 01:41:56 435.225
DX 1 25 Jul 01:41:44 01:46:05 67° 258° (WSW) 01:50:28 434.975-435.025
MOZHAYETS 4 25 Jul 01:44:56 01:46:00 11° 53° (NE) 01:47:04
AIST 2D 25 Jul 01:48:14 01:50:31 17° 296° (WNW) 01:52:48 435.315
ISS 25 Jul 01:52:56 01:56:12 73° 13° (NNE) 01:59:27 437.550
FO-29 25 Jul 02:11:05 02:11:39 10° 325° (NW) 02:12:13 435.910
DUCHIFAT 1 25 Jul 02:14:44 02:18:27 32° 294° (WNW) 02:22:10 145.980
BEESAT 25 Jul 02:15:07 02:19:05 27° 62° (ENE) 02:23:04 436.000
POLYITAN 1 25 Jul 02:16:55 02:20:26 26° 296° (WNW) 02:23:54 437.675
Tancredo 1 25 Jul 02:20:36 02:23:27 44° 208° (SSW) 02:26:18 437.200
50 SAT 25 Jul 02:21:35 02:23:35 15° 269° (W) 02:25:36 437.505
O/OREOS (USA 219) 25 Jul 02:25:01 02:28:45 26° 255° (WSW) 02:32:30 437.305
UKube-1 25 Jul 02:25:32 02:29:31 36° 263° (W) 02:33:32 .
ITUPSAT 1 25 Jul 02:27:46 02:32:02 33° 64° (ENE) 02:36:19 437.325
QB50P2 25 Jul 02:30:21 02:33:20 19° 299° (WNW) 02:36:18 145.880/145.840
nSIGHT-1 25 Jul 02:35:30 02:38:44 73° 202° (SSW) 02:41:57 .
EO-79 25 Jul 02:42:48 02:45:25 16° 301° (WNW) 02:48:00 145.935-145.965
NANOSAT C BR1 25 Jul 02:42:53 02:45:40 17° 300° (WNW) 02:48:25 145.865
BUGSAT 1 25 Jul 02:44:31 02:48:30 47° 290° (WNW) 02:52:23 437.445
Oscar 19 25 Jul 02:51:23 02:56:35 76° 104° (ESE) 03:01:45 437.125/150
AO-7 25 Jul 03:08:50 03:14:02 17° 85° (E) 03:19:11 .
Gurwin Techsat 1B 25 Jul 03:15:08 03:20:30 79° 104° (ESE) 03:25:49 435.225
MOZHAYETS 4 25 Jul 03:17:46 03:22:18 65° 72° (ENE) 03:26:50
RS-15 25 Jul 03:28:25 03:37:38 27° 259° (W) 03:46:32 29.354- 29.394
ISS 25 Jul 03:29:32 03:32:32 34° 212° (SSW) 03:35:32 437.550
BEESAT 25 Jul 03:52:04 03:56:39 46° 261° (W) 04:01:16 436.000
CUBESAT XI-V 25 Jul 03:52:07 03:56:12 33° 66° (ENE) 04:00:19 437.345
KKS-1 25 Jul 04:01:33 04:05:14 25° 62° (ENE) 04:08:55 437.445
ITUPSAT 1 25 Jul 04:05:24 04:09:49 36° 263° (W) 04:14:15 437.325
nSIGHT-1 25 Jul 04:12:32 04:14:43 17° 220° (SW) 04:16:54 .
PCSat 25 Jul 04:28:26 04:30:59 14° 103° (ESE) 04:33:32 145.827
Oscar 19 25 Jul 04:31:42 04:35:22 20° 303° (WNW) 04:39:01 437.125/150
STARS 25 Jul 04:32:10 04:35:39 23° 62° (ENE) 04:39:09 437.465
YUBILEINY 25 Jul 04:34:27 04:41:17 24° 56° (NE) 04:48:04 435.215
ITAMSAT 1 25 Jul 04:42:22 04:47:34 63° 102° (ESE) 04:52:41 435.822/435.867
Gurwin Techsat 1B 25 Jul 04:56:06 04:59:51 20° 304° (NW) 05:03:37 435.225
MOZHAYETS 4 25 Jul 04:56:56 04:59:54 17° 271° (W) 05:02:52
AO-7 25 Jul 04:59:53 05:08:17 73° 107° (ESE) 05:16:37 .
DOVE 4 25 Jul 05:24:12 05:27:24 16° 86° (E) 05:30:33 437.250
CUBESAT XI-V 25 Jul 05:29:24 05:33:33 34° 264° (W) 05:37:46 437.345
KKS-1 25 Jul 05:37:18 05:41:35 44° 261° (W) 05:45:54 437.445
STARS 25 Jul 06:07:26 06:11:43 48° 260° (W) 06:16:03 437.465
PCSat 25 Jul 06:08:03 06:13:27 76° 123° (ESE) 06:18:55 145.827
XW-2D 25 Jul 06:16:12 06:18:13 14° 90° (E) 06:20:13 145.860 - 145.880
ITAMSAT 1 25 Jul 06:22:33 06:26:37 24° 302° (WNW) 06:30:40 435.822/435.867
XW-2B 25 Jul 06:25:51 06:28:22 17° 91° (E) 06:30:53 145.730 - 145.750
CUTE-I 25 Jul 06:29:19 06:33:18 21° 90° (E) 06:37:15 437.470
YUBILEINY 25 Jul 06:30:41 06:39:33 86° 80° (E) 06:48:17 435.215
SO-50 25 Jul 06:31:51 06:35:32 25° 116° (ESE) 06:39:13 436.795
STRAND 1 25 Jul 06:36:46 06:41:15 31° 63° (ENE) 06:45:45 437.568
XW-2C 25 Jul 06:42:42 06:45:52 25° 94° (E) 06:49:03 145.795 - 145.815
NUDT-PHONESAT 25 Jul 06:51:02 06:54:03 23° 94° (E) 06:57:03 437.300
AO-7 25 Jul 06:53:12 07:00:30 35° 309° (NW) 07:07:46 .
DOVE 4 25 Jul 07:00:26 07:05:46 85° 286° (WNW) 07:10:56 437.250
KAITUO 1B 25 Jul 07:04:58 07:08:23 34° 97° (E) 07:11:49 145.475/437.950
LilacSat-2 25 Jul 07:05:37 07:09:17 47° 99° (E) 07:12:58 437.200
FO-29 25 Jul 07:11:52 07:15:47 15° 42° (NE) 07:19:41 435.910
XW-2F 25 Jul 07:20:18 07:24:02 63° 102° (ESE) 07:27:44 145.980 - 146.000
XW-2D 25 Jul 07:49:03 07:52:45 56° 287° (WNW) 07:56:26 145.860 - 145.880
PCSat 25 Jul 07:52:46 07:57:25 28° 324° (NW) 08:02:05 145.827
AAUSAT CUBESAT 2 25 Jul 07:58:44 07:59:37 11° 86° (E) 08:00:29 437.432
XW-2B 25 Jul 07:59:11 08:02:48 45° 289° (WNW) 08:06:24 145.730 - 145.750
HO-68 25 Jul 08:06:02 08:12:50 44° 98° (E) 08:19:35 435.675
CUTE-I 25 Jul 08:08:30 08:13:51 67° 289° (WNW) 08:19:09 437.470
XW-2A 25 Jul 08:10:00 08:12:42 22° 94° (E) 08:15:24 145.665 - 145.685
SO-50 25 Jul 08:11:16 08:15:42 55° 315° (NW) 08:20:10 436.795
CUBEBUG 2 25 Jul 08:15:14 08:18:50 26° 93° (E) 08:22:21 437.445
STRAND 1 25 Jul 08:15:23 08:20:18 44° 262° (W) 08:25:14 437.568
XW-2C 25 Jul 08:16:46 08:20:05 29° 292° (WNW) 08:23:22 145.795 - 145.815
NUDT-PHONESAT 25 Jul 08:24:43 08:27:59 30° 292° (WNW) 08:31:14 437.300
YUBILEINY 25 Jul 08:28:41 08:35:15 24° 283° (WNW) 08:41:46 435.215
AO-73 25 Jul 08:32:34 08:34:14 12° 87° (E) 08:35:55 145.935
CUTE 1.7 + AOD 2 25 Jul 08:35:37 08:39:53 77° 103° (ESE) 08:44:08 437.475
KAITUO 1B 25 Jul 08:39:18 08:42:14 22° 295° (WNW) 08:45:10 145.475/437.950
DOVE 4 25 Jul 08:39:25 08:42:39 17° 305° (NW) 08:45:51 437.250
LilacSat-2 25 Jul 08:40:42 08:43:16 18° 297° (WNW) 08:45:49 437.200
AO-7 25 Jul 08:47:39 08:50:50 13° 334° (NNW) 08:54:01 .
SEEDS 25 Jul 08:47:54 08:52:06 67° 101° (E) 08:56:19 437.485
TIGRISAT 25 Jul 08:48:15 08:51:12 17° 59° (ENE) 08:54:06 435.000
FO-29 25 Jul 08:51:42 08:59:01 48° 63° (ENE) 09:06:27 435.910
XW-2F 25 Jul 08:55:43 08:57:42 14° 300° (WNW) 08:59:41 145.980 - 146.000
M-CUBED/EXP-1 PRIME 25 Jul 08:59:46 09:01:57 15° 50° (NE) 09:04:14 437.505
UWE-3 25 Jul 09:12:58 09:17:08 59° 100° (E) 09:21:14 435.000/436.395/437.385
ZACube-1 25 Jul 09:26:43 09:30:45 46° 99° (E) 09:34:44 437.345
AAUSAT CUBESAT 2 25 Jul 09:31:29 09:35:42 89° 285° (WNW) 09:39:53 437.432
PRISM 25 Jul 09:35:50 09:39:37 36° 67° (ENE) 09:43:26 437.425
UNISAT 6 25 Jul 09:38:42 09:43:08 47° 70° (ENE) 09:47:30 437.425
PCSat 25 Jul 09:40:08 09:42:43 13° 349° (N) 09:45:18 145.827
XW-2A 25 Jul 09:42:36 09:45:26 26° 293° (WNW) 09:48:15 145.665 - 145.685
CUTE-I 25 Jul 09:50:22 09:52:56 14° 309° (NW) 09:55:31 437.470
CUBEBUG 2 25 Jul 09:51:37 09:55:34 36° 293° (WNW) 09:59:25 437.445
Oscar 11 25 Jul 09:52:41 09:56:58 60° 101° (E) 10:01:14 .
HO-68 25 Jul 09:53:52 10:00:38 47° 298° (WNW) 10:07:22 435.675
SO-50 25 Jul 09:54:04 09:57:07 17° 338° (NNW) 10:00:11 436.795
AO-73 25 Jul 10:06:53 10:11:03 76° 286° (WNW) 10:15:10 145.935
CUTE 1.7 + AOD 2 25 Jul 10:12:49 10:15:11 15° 301° (WNW) 10:17:32 437.475
QB50P2 25 Jul 10:18:17 10:19:14 11° 55° (NE) 10:20:12 145.880/145.840
TIGRISAT 25 Jul 10:22:44 10:27:22 75° 258° (WSW) 10:31:57 435.000
SEEDS 25 Jul 10:24:43 10:27:19 16° 300° (WNW) 10:29:57 437.485
EO-79 25 Jul 10:29:19 10:31:09 13° 56° (NE) 10:32:58 145.935-145.965
NANOSAT C BR1 25 Jul 10:29:44 10:31:10 11° 55° (NE) 10:32:35 145.865
M-CUBED/EXP-1 PRIME 25 Jul 10:32:04 10:35:46 77° 251° (WSW) 10:39:50 437.505
DELFI C3 25 Jul 10:33:29 10:37:20 43° 98° (E) 10:41:11 145.870
FO-29 25 Jul 10:36:35 10:43:59 49° 264° (W) 10:51:36 435.910
UWE-3 25 Jul 10:50:22 10:53:11 18° 300° (WNW) 10:55:57 435.000/436.395/437.385
AIST 2D 25 Jul 10:52:39 10:55:43 30° 69° (ENE) 10:58:49 435.315
EO-88 25 Jul 10:59:28 11:03:03 53° 100° (E) 11:06:37 145.990 - 145.960
ZACube-1 25 Jul 11:03:38 11:06:46 21° 298° (WNW) 11:09:52 437.345
AAUSAT CUBESAT 2 25 Jul 11:08:46 11:10:30 12° 303° (WNW) 11:12:15 437.432
PRISM 25 Jul 11:11:35 11:14:59 25° 266° (W) 11:18:25 437.425
NO-84 25 Jul 11:16:18 11:18:12 15° 131° (SE) 11:20:10 435.350 FM
UNISAT 6 25 Jul 11:16:21 11:20:03 23° 267° (W) 11:23:43 437.425
PCSat 25 Jul 11:25:31 11:28:31 15° 16° (NNE) 11:31:31 145.827
Oscar 11 25 Jul 11:29:45 11:32:42 18° 299° (WNW) 11:35:39 .
DUCHIFAT 1 25 Jul 11:34:35 11:38:31 38° 68° (ENE) 11:42:28 145.980
POLYITAN 1 25 Jul 11:37:05 11:41:12 49° 70° (ENE) 11:45:20 437.675
SO-50 25 Jul 11:37:30 11:39:22 12° 3° (N) 11:41:15 436.795
HO-68 25 Jul 11:43:31 11:46:42 14° 321° (NW) 11:49:52 435.675
AO-73 25 Jul 11:45:44 11:46:32 10° 305° (NW) 11:47:19 145.935
QB50P2 25 Jul 11:50:00 11:54:15 72° 73° (ENE) 11:58:31 145.880/145.840
NANOSAT C BR1 25 Jul 12:01:54 12:06:09 79° 76° (ENE) 12:10:25 145.865
EO-79 25 Jul 12:01:58 12:06:14 86° 76° (ENE) 12:10:32 145.935-145.965
BUGSAT 1 25 Jul 12:03:15 12:06:45 26° 64° (ENE) 12:10:15 437.445
DELFI C3 25 Jul 12:08:49 12:11:51 21° 297° (WNW) 12:14:53 145.870
AO-7 25 Jul 12:25:00 12:28:55 14° 29° (NNE) 12:32:50 .
AIST 2D 25 Jul 12:26:15 12:28:58 21° 266° (W) 12:31:43 435.315
FO-29 25 Jul 12:30:03 12:30:56 10° 285° (WNW) 12:31:48 435.910
EO-88 25 Jul 12:34:11 12:36:21 15° 298° (WNW) 12:38:30 145.990 - 145.960
Oscar 19 25 Jul 12:34:29 12:38:47 28° 61° (ENE) 12:43:06 437.125/150
SPROUT 25 Jul 12:35:05 12:37:53 17° 90° (E) 12:40:39 437.525
ESTCUBE 1 25 Jul 12:35:51 12:40:20 58° 101° (E) 12:44:47 437.505/2401.250
LO-87 25 Jul 12:36:38 12:40:16 78° 285° (WNW) 12:43:51 145.935 - 145.965
BEESAT 3 25 Jul 12:46:45 12:49:54 23° 116° (ESE) 12:53:07 437.485
NO-84 25 Jul 12:51:57 12:55:08 88° 331° (NNW) 12:58:36 435.350 FM
Gurwin Techsat 1B 25 Jul 13:01:40 13:06:20 32° 62° (ENE) 13:11:01 435.225
PCSat 25 Jul 13:08:34 13:13:34 35° 41° (NE) 13:18:32 145.827
DUCHIFAT 1 25 Jul 13:10:47 13:14:18 25° 266° (W) 13:17:50 145.980
POLYITAN 1 25 Jul 13:14:07 13:17:15 20° 268° (W) 13:20:24 437.675
SO-50 25 Jul 13:18:00 13:21:30 21° 28° (NNE) 13:24:59 436.795
VELOX 1 25 Jul 13:20:45 13:24:58 39° 98° (E) 13:29:08 145.980
DX 1 25 Jul 13:26:32 13:29:13 16° 90° (E) 13:31:53 434.975-435.025
BEESAT 2 25 Jul 13:27:09 13:30:12 21° 115° (ESE) 13:33:18 435.950
QB50P2 25 Jul 13:28:19 13:30:32 14° 272° (W) 13:32:45 145.880/145.840
50 SAT 25 Jul 13:37:50 13:40:41 23° 95° (E) 13:43:29 437.505
BUGSAT 1 25 Jul 13:37:58 13:41:57 39° 262° (W) 13:45:56 437.445
NANOSAT C BR1 25 Jul 13:40:35 13:42:24 12° 272° (W) 13:44:15 145.865
EO-79 25 Jul 13:41:13 13:42:36 11° 273° (W) 13:44:01 145.935-145.965
AO-85 25 Jul 13:43:50 13:47:47 75° 126° (SE) 13:51:42 145.980
UKube-1 25 Jul 14:07:57 14:11:38 26° 95° (E) 14:15:18 .
SPROUT 25 Jul 14:09:57 14:14:10 58° 288° (WNW) 14:18:21 437.525
AO-7 25 Jul 14:11:54 14:19:28 40° 54° (NE) 14:27:05 .
Oscar 19 25 Jul 14:12:55 14:17:52 49° 260° (W) 14:22:52 437.125/150
ESTCUBE 1 25 Jul 14:13:25 14:16:45 21° 300° (WNW) 14:20:05 437.505/2401.250
BEESAT 3 25 Jul 14:23:18 14:27:13 50° 315° (NW) 14:31:11 437.485
ITAMSAT 1 25 Jul 14:26:36 14:30:50 26° 60° (ENE) 14:35:06 435.822/435.867
NO-84 25 Jul 14:29:47 14:32:54 35° 353° (N) 14:36:18 435.350 FM
Gurwin Techsat 1B 25 Jul 14:41:04 14:46:08 45° 261° (W) 14:51:16 435.225
PCSat 25 Jul 14:51:55 14:57:12 53° 242° (WSW) 15:02:27 145.827
VELOX 1 25 Jul 14:57:29 15:01:16 28° 297° (WNW) 15:05:03 145.980
SO-50 25 Jul 14:58:04 15:02:38 80° 49° (NE) 15:07:13 436.795
DX 1 25 Jul 15:01:29 15:05:51 66° 289° (WNW) 15:10:12 434.975-435.025
O/OREOS (USA 219) 25 Jul 15:03:00 15:06:16 20° 102° (ESE) 15:09:33 437.305
BEESAT 2 25 Jul 15:03:42 15:07:39 54° 315° (NW) 15:11:39 435.950
50 SAT 25 Jul 15:10:26 15:13:24 27° 293° (WNW) 15:16:21 437.505
MOZHAYETS 4 25 Jul 15:10:36 15:11:54 11° 85° (E) 15:13:12
AO-85 25 Jul 15:25:35 15:28:36 21° 329° (NNW) 15:31:39 145.980
RS-15 25 Jul 15:42:41 15:53:45 43° 109° (ESE) 16:04:55 29.354- 29.394
UKube-1 25 Jul 15:43:44 15:47:45 38° 293° (WNW) 15:51:45 .
BEESAT 25 Jul 15:47:37 15:51:52 32° 96° (E) 15:56:06 436.000
ITUPSAT 1 25 Jul 16:00:55 16:05:26 40° 98° (E) 16:09:55 437.325
BEESAT 3 25 Jul 16:03:23 16:05:42 15° 337° (NNW) 16:08:02 437.485
AO-7 25 Jul 16:03:39 16:11:55 63° 255° (WSW) 16:20:16 .
ITAMSAT 1 25 Jul 16:04:50 16:09:59 57° 259° (W) 16:15:09 435.822/435.867
NO-84 25 Jul 16:07:33 16:10:56 41° 14° (NNE) 16:14:37 435.350 FM
CUTE-I 25 Jul 16:20:15 16:21:17 11° 47° (NE) 16:22:19 437.470
DOVE 4 25 Jul 16:33:09 16:37:11 25° 61° (ENE) 16:41:23 437.250
SO-50 25 Jul 16:39:39 16:42:33 17° 248° (WSW) 16:45:27 436.795
DX 1 25 Jul 16:40:23 16:41:12 10° 307° (NW) 16:42:01 434.975-435.025
O/OREOS (USA 219) 25 Jul 16:40:54 16:45:18 55° 301° (WNW) 16:49:43 437.305
BEESAT 2 25 Jul 16:43:49 16:46:16 15° 336° (NNW) 16:48:44 435.950
MOZHAYETS 4 25 Jul 16:45:12 16:49:47 85° 104° (ESE) 16:54:21
HO-68 25 Jul 16:56:03 16:59:39 15° 41° (NE) 17:03:15 435.675
XW-2D 25 Jul 17:02:00 17:03:58 14° 60° (ENE) 17:05:57 145.860 - 145.880
XW-2B 25 Jul 17:11:33 17:13:58 17° 62° (ENE) 17:16:24 145.730 - 145.750
CUBESAT XI-V 25 Jul 17:20:44 17:25:12 43° 98° (E) 17:29:40 437.345
KKS-1 25 Jul 17:23:53 17:27:38 26° 94° (E) 17:31:22 437.445
BEESAT 25 Jul 17:25:19 17:29:41 37° 294° (WNW) 17:34:02 436.000
XW-2C 25 Jul 17:28:09 17:31:12 24° 66° (ENE) 17:34:17 145.795 - 145.815
NUDT-PHONESAT 25 Jul 17:34:31 17:37:20 21° 65° (ENE) 17:40:11 437.300
ITUPSAT 1 25 Jul 17:39:01 17:43:08 30° 297° (WNW) 17:47:14 437.325
YUBILEINY 25 Jul 17:43:30 17:49:37 22° 75° (ENE) 17:55:43 435.215
NO-84 25 Jul 17:44:54 17:48:37 70° 213° (SSW) 17:52:39 435.350 FM
KAITUO 1B 25 Jul 17:49:01 17:52:16 30° 68° (ENE) 17:55:32 145.475/437.950
LilacSat-2 25 Jul 17:51:22 17:54:58 43° 71° (ENE) 17:58:34 437.200
STARS 25 Jul 17:52:41 17:56:09 22° 93° (E) 17:59:34 437.465
RS-15 25 Jul 17:53:14 18:05:34 76° 315° (NW) 18:17:58 29.354- 29.394
CUTE-I 25 Jul 17:54:58 18:00:08 50° 68° (ENE) 18:05:21 437.470
CUTE 1.7 + AOD 2 25 Jul 17:59:14 18:01:04 13° 57° (ENE) 18:02:55 437.475
AO-7 25 Jul 18:02:27 18:06:28 14° 277° (W) 18:10:30 .
XW-2F 25 Jul 18:04:57 18:08:36 55° 73° (ENE) 18:12:16 145.980 - 146.000
DOVE 4 25 Jul 18:09:37 18:14:28 57° 261° (W) 18:19:38 437.250
SEEDS 25 Jul 18:11:23 18:12:30 11° 56° (NE) 18:13:38 437.485
MOZHAYETS 4 25 Jul 18:23:45 18:26:20 15° 303° (WNW) 18:28:55
O/OREOS (USA 219) 25 Jul 18:24:11 18:25:46 12° 323° (NW) 18:27:20 437.305
XW-2D 25 Jul 18:33:59 18:37:42 63° 259° (W) 18:41:27 145.860 - 145.880
HO-68 25 Jul 18:38:58 18:45:50 51° 63° (ENE) 18:52:43 435.675
UWE-3 25 Jul 18:40:18 18:42:11 13° 56° (ENE) 18:44:03 435.000/436.395/437.385
XW-2B 25 Jul 18:44:10 18:47:49 50° 261° (W) 18:51:29 145.730 - 145.750
XW-2A 25 Jul 18:45:45 18:48:01 17° 64° (ENE) 18:50:17 145.665 - 145.685
AO-85 25 Jul 18:50:53 18:52:44 13° 19° (NNE) 18:54:35 145.980
AAUSAT CUBESAT 2 25 Jul 18:52:29 18:54:33 14° 58° (ENE) 18:56:37 437.432
CUBESAT XI-V 25 Jul 18:58:29 19:02:23 27° 297° (WNW) 19:06:19 437.345
KKS-1 25 Jul 19:00:07 19:04:21 41° 292° (WNW) 19:08:32 437.445
XW-2C 25 Jul 19:01:54 19:05:17 32° 264° (W) 19:08:41 145.795 - 145.815
NUDT-PHONESAT 25 Jul 19:07:40 19:11:04 35° 263° (W) 19:14:28 437.300
CUBEBUG 2 25 Jul 19:16:42 19:21:02 39° 68° (ENE) 19:25:16 437.445
Oscar 11 25 Jul 19:18:43 19:20:09 11° 55° (NE) 19:21:35 .
BEESAT 3 25 Jul 19:21:43 19:24:14 16° 25° (NNE) 19:26:43 437.485
KAITUO 1B 25 Jul 19:23:16 19:26:18 24° 266° (W) 19:29:21 145.475/437.950
NO-84 25 Jul 19:23:22 19:25:39 15° 229° (SW) 19:28:01 435.350 FM
LilacSat-2 25 Jul 19:26:53 19:29:28 17° 269° (W) 19:32:04 437.200
STARS 25 Jul 19:28:28 19:32:43 47° 291° (WNW) 19:36:55 437.465
AO-73 25 Jul 19:31:28 19:34:30 19° 61° (ENE) 19:37:31 145.935
CUTE 1.7 + AOD 2 25 Jul 19:32:03 19:36:15 89° 255° (WSW) 19:40:30 437.475
CUTE-I 25 Jul 19:35:52 19:40:27 28° 267° (W) 19:45:03 437.470
YUBILEINY 25 Jul 19:36:15 19:45:07 85° 97° (E) 19:53:59 435.215
XW-2F 25 Jul 19:41:06 19:43:05 14° 271° (W) 19:45:04 145.980 - 146.000
SEEDS 25 Jul 19:43:19 19:47:28 79° 73° (ENE) 19:51:39 437.485
BEESAT 2 25 Jul 20:02:40 20:05:09 15° 24° (NNE) 20:07:38 435.950
RS-15 25 Jul 20:08:47 20:20:21 42° 345° (NNW) 20:31:47 29.354- 29.394
UWE-3 25 Jul 20:13:24 20:17:57 81° 74° (ENE) 20:22:25 435.000/436.395/437.385
XW-2A 25 Jul 20:17:20 20:20:31 38° 262° (W) 20:23:42 145.665 - 145.685
STRAND 1 25 Jul 20:21:05 20:26:02 46° 99° (E) 20:30:55 437.568
AAUSAT CUBESAT 2 25 Jul 20:25:20 20:29:25 80° 255° (WSW) 20:33:35 437.432
ZACube-1 25 Jul 20:26:05 20:30:27 63° 73° (ENE) 20:34:45 437.345
HO-68 25 Jul 20:27:05 20:33:44 40° 263° (W) 20:40:26 435.675
Tancredo 1 25 Jul 20:27:30 20:29:33 17° 141° (SE) 20:31:36 437.200
AO-85 25 Jul 20:30:19 20:34:11 38° 41° (NE) 20:38:15 145.980
Oscar 11 25 Jul 20:51:15 20:55:33 78° 74° (ENE) 20:59:53 .
CUBEBUG 2 25 Jul 20:53:40 20:57:43 29° 266° (W) 21:01:43 437.445
nSIGHT-1 25 Jul 20:54:32 20:56:25 15° 138° (SE) 20:58:17 .
BEESAT 3 25 Jul 20:58:37 21:02:37 58° 46° (NE) 21:06:33 437.485
AO-73 25 Jul 21:06:01 21:10:23 59° 259° (W) 21:14:39 145.935
CUTE 1.7 + AOD 2 25 Jul 21:12:04 21:12:45 10° 274° (W) 21:13:26 437.475
SEEDS 25 Jul 21:22:05 21:23:43 12° 273° (W) 21:25:22 437.485
DELFI C3 25 Jul 21:22:40 21:26:25 44° 70° (ENE) 21:30:13 145.870
